TimeEDT,TemperatureF,Dew PointF,Humidity,Sea Level PressureIn,VisibilityMPH,Wind Direction,Wind SpeedMPH,Gust SpeedMPH,PrecipitationIn,Events,Conditions,WindDirDegrees,DateUTC
12:53 AM,51.1,45.0,80,29.76,10.0,NNW,13.8,-,N/A,,Scattered Clouds,340,2013-09-21 04:53:00
12:57 AM,51.8,46.4,82,29.76,9.0,NNW,13.8,-,N/A,,Mostly Cloudy,330,2013-09-21 04:57:00
1:44 AM,50.0,46.4,87,29.76,10.0,NNW,12.7,19.6,0.02,,Scattered Clouds,340,2013-09-21 05:44:00
1:53 AM,48.9,46.0,90,29.76,10.0,NNW,9.2,-,0.02,,Mostly Cloudy,330,2013-09-21 05:53:00
2:15 AM,48.2,46.4,93,29.76,10.0,NNW,10.4,-,N/A,,Overcast,340,2013-09-21 06:15:00
2:23 AM,48.2,46.4,93,29.76,8.0,NNW,9.2,-,0.00,Rain,Light Rain,340,2013-09-21 06:23:00
2:53 AM,48.0,45.0,89,29.78,10.0,NNW,9.2,-,0.00,,Overcast,340,2013-09-21 06:53:00
3:00 AM,48.2,44.6,87,29.77,10.0,NNW,11.5,-,N/A,,Overcast,340,2013-09-21 07:00:00
3:39 AM,48.2,42.8,82,29.77,10.0,NW,12.7,-,N/A,,Overcast,320,2013-09-21 07:39:00
3:53 AM,48.0,41.0,77,29.78,10.0,NNW,9.2,-,N/A,,Overcast,330,2013-09-21 07:53:00
4:53 AM,46.9,39.9,77,29.80,10.0,NNW,11.5,-,N/A,,Overcast,330,2013-09-21 08:53:00
5:53 AM,46.9,39.9,77,29.80,10.0,NW,11.5,-,N/A,,Overcast,320,2013-09-21 09:53:00
6:53 AM,45.0,37.9,76,29.82,10.0,NNW,10.4,-,N/A,,Overcast,340,2013-09-21 10:53:00
7:53 AM,45.0,37.0,74,29.84,10.0,NW,17.3,23.0,N/A,,Mostly Cloudy,320,2013-09-21 11:53:00
8:19 AM,44.6,37.4,76,29.83,10.0,NW,13.8,-,N/A,,Overcast,320,2013-09-21 12:19:00
8:53 AM,46.0,37.9,73,29.85,10.0,NNW,15.0,-,N/A,,Mostly Cloudy,330,2013-09-21 12:53:00
9:53 AM,46.9,36.0,66,29.86,10.0,NW,17.3,23.0,N/A,,Mostly Cloudy,320,2013-09-21 13:53:00
10:53 AM,46.9,36.0,66,29.88,10.0,NW,16.1,23.0,N/A,,Overcast,320,2013-09-21 14:53:00
11:32 AM,46.4,37.4,71,29.86,10.0,NW,18.4,29.9,N/A,,Mostly Cloudy,320,2013-09-21 15:32:00
11:53 AM,48.0,36.0,63,29.88,10.0,NNW,15.0,-,N/A,,Mostly Cloudy,340,2013-09-21 15:53:00
12:53 PM,48.0,36.0,63,29.89,10.0,NW,18.4,-,N/A,,Mostly Cloudy,310,2013-09-21 16:53:00
1:00 PM,48.2,35.6,62,29.88,10.0,NNW,16.1,20.7,N/A,,Overcast,340,2013-09-21 17:00:00
1:53 PM,46.9,36.0,66,29.91,10.0,NW,15.0,-,N/A,,Overcast,310,2013-09-21 17:53:00
2:04 PM,48.2,35.6,62,29.89,10.0,NW,16.1,-,N/A,,Overcast,320,2013-09-21 18:04:00
2:53 PM,46.9,36.0,66,29.91,10.0,NW,11.5,-,N/A,,Overcast,320,2013-09-21 18:53:00
3:45 PM,46.4,35.6,66,29.90,10.0,NW,13.8,-,N/A,,Overcast,320,2013-09-21 19:45:00
3:53 PM,46.9,35.1,63,29.92,10.0,WNW,17.3,-,N/A,,Overcast,300,2013-09-21 19:53:00
4:53 PM,46.9,35.1,63,29.93,10.0,NNW,11.5,-,N/A,,Overcast,330,2013-09-21 20:53:00
5:53 PM,48.0,36.0,63,29.94,10.0,NW,11.5,-,N/A,,Overcast,310,2013-09-21 21:53:00
6:53 PM,46.9,37.0,68,29.94,10.0,NW,6.9,-,N/A,,Overcast,310,2013-09-21 22:53:00
7:53 PM,46.0,37.0,71,29.94,10.0,NW,5.8,-,N/A,,Overcast,320,2013-09-21 23:53:00
8:32 PM,46.4,39.2,76,29.93,10.0,NNE,3.5,-,N/A,,Overcast,30,2013-09-22 00:32:00
8:53 PM,45.0,39.0,80,29.96,-9999.0,North,-9999.0,-,N/A,,Unknown,0,2013-09-22 00:53:00
9:53 PM,-9999,-9999,N/A,29.95,-9999.0,North,-9999.0,-,N/A,,Unknown,0,2013-09-22 01:53:00
10:53 PM,43.0,37.0,80,29.99,10.0,NE,4.6,-,N/A,,Mostly Cloudy,50,2013-09-22 02:53:00
11:53 PM,42.1,37.0,82,30.00,10.0,NE,4.6,-,N/A,,Overcast,40,2013-09-22 03:53:00